Showing default

GAOFEN 11, 43585

Orbit data source: Space-Track

GAOFEN 11, 43585 is a payload satellite owned by PLA SSF (CN) in SSO that was launched on Tue, 31 Jul 2018 UTC via a CHANG ZHENG 4B launch vehicle from the Taiyaun Space Center, China (TSC). Payloads include a variety of satellites, spacecraft, and rockets equipped with specific instruments for various scientific and technological missions. These include communications satellites like Starlink; space stations such as the ISS; scientific satellites like the Hubble; Earth observation satellites from companies like Planet Labs, Umbra, and HawkEye 360; GPS; miniature CubeSats for education and research; and military/defense satellites.

Loading next visibility...
GAOFEN 11 details
Identifier
43585, 2018-063A
Orbit
SSO
Last TLE update6 hours ago
Origin
Flag of CNPLA SSF (CN / PRC)
ManufacturerCAST
MissionOperational Defense Imaging
Bus & MotorYW-5?, Unknown motor
Mass~3,000 kg wet, ~3,000 kg dry
Launch date (UTC)
2018-07-31 (6 years ago)
Launch vehicle
CHANG ZHENG 4B
Launch site
Taiyaun Space Center, China (TSC)
Object type
Payload
Rocket body
Debris
Shape & HBRBox + 2 Pan, 8 m
Radar Cross Section9.231 m², Large (>1 m²)

Expand to show TLE details & history

TLE from 6 hours ago
0 GAOFEN 11
1 43585U 18063A   24361.59609425  .00019599  00000-0  52843-3 0  9997
2 43585  97.2075  63.2233 0008261 132.5671 227.6272 15.37809753357256
Epoch: 2024-12-26T14:18Z
Definitive object data (Epoch: 2024-12-26T14:18:22.543Z)
Latitude-0.00008°
Longitude113.05616°
Altitude459.514 km
Speed7.635 km/s
True Right ascension04h 12m 53s
True Declination0° 00' 00"
Sunlit
Object was in full shadow at TLE epoch
Visualization TLE readout
Latitude-82.7776°
Longitude-149.63956°
Altitude485.134 km
Speed7.619 km/s
Apparent Right ascension07h 58m 46s
Apparent Declination-63° 02' 57"
Sunlit
Object is in daylight
Visualization observer readout
Local Sidereal Time19:32:14
Azimuth187.555° SSW
Elevation-66.53°
Doppler factor1
Orbital elements
Apogee altitude455.161 km
Perigee altitude443.881 km
Semi-major axis6,827.658 km
Eccentricity0.0008261
Inclination97.2075°
RAAN63.2233°
Arg. of periapsis132.5671°
True anomaly227.55731°
Mean anomaly227.6272°
Eccentric anomaly227.59225°
Mean motion3.84712 °/min
BSTAR0.00052843
Orbital period93.58 mins
Loading maneuver chart data...
Loading historical data...
Loading historical data...
Loading historical data...
Loading historical data...
Loading historical data...
Loading historical data...
Loading historical data...
Other satellites on launch #63 in the year 2018 (2018-07-31 UTC)

GAOFEN 11 Visibility forecast

Observer location: undefined°, undefined

Span
Click to sort rows by Start time (UTC) header in descending order
Start Az.
Max El. time (UTC)
Max El. Az.
Max El.
End time (UTC)
End Az.
5 mins2024-12-27 04:29:27.159Z173.756° S2024-12-27 04:32:27.159Z313.698° NW42.256°2024-12-27 04:34:27.159Z342.883° N
5 mins2024-12-27 17:25:27.159Z357.33° N2024-12-27 17:27:27.159Z282.273° WNW40.393°2024-12-27 17:30:27.159Z205.476° SW
|